Regional Weather Roundup
Issued by NWS

Home | Current Version | Previous Version | Text Only | Print | Product List | Glossary Off
Versions: 1 2 3 4 5 6 7 8 9 10 11 12 13 14 15 16 17 18 19 20 21 22 23 24 25 26 27 28 29 30 31 32 33 34 35 36 37 38 39 40 41 42 43 44 45 46 47 48 49 50

000
ASUS43 KLOT 242100
RWRIL

ILLINOIS REGIONAL WEATHER ROUNDUP
NATIONAL WEATHER SERVICE CHICAGO/ROMEOVILLE IL
300 PM CST MON NOV 24 2014

NOTE: "FAIR" INDICATES FEW OR NO CLOUDS BELOW 12,000 FEET WITH NO
SIGNIFICANT WEATHER AND/OR OBSTRUCTIONS TO VISIBILITY.

* THESE STATIONS ARE NOT UNDER NWS QUALITY CONTROL. THEY ALSO MAY NOT
  REPORT WEATHER SUCH AS PRECIPITATION OR FOG.

ILZ001-002-007-009-015-016-024-242200-
NORTHWEST ILLINOIS

CITY           SKY/WX    TMP DP  RH WIND       PRES   REMARKS
MOLINE         LGT SNOW  27  22  81 W29G37    29.62R VSB 3/4 WCI  11
STERLING*      CLOUDY   N/A N/A N/A W28       29.57R
$$

ILZ003-004-008-010-011-017-018-242200-
NORTH CENTRAL ILLINOIS

CITY           SKY/WX    TMP DP  RH WIND       PRES   REMARKS
ROCKFORD       FLURRIES  27  23  85 W15G28    29.51R WCI  15
$$

ILZ005-006-012>014-019>023-242200-
NORTHEAST ILLINOIS

CITY           SKY/WX    TMP DP  RH WIND       PRES   REMARKS
CHICAGO-OHARE  LGT SNOW  29  25  85 W24G32    29.48R FOG     WCI  15
CHICAGO-MIDWAY LGT SNOW  32  28  85 W24G41    29.51R FOG     WCI  19
AURORA         LGT SNOW  29  24  82 W28       29.52R WCI  14
WAUKEGAN       LGT SNOW  29  26  89 SW14G32   29.41R FOG     WCI  18
DUPAGE AIRPORT LGT SNOW  28  25  88 W25G36    29.51R FOG     WCI  13
WHEELING       CLOUDY    30  25  81 SW22G30   29.49R HAZE    WCI  17
NORTHERLY ISL    N/A     31  28  89 W15         N/A  WCI  20
$$

LMZ740>746-242200-
SOUTHERN LAKE MICHIGAN

STATION/POSITION SKY/WX   TEMP    WIND        PRES    VSBY  WAVE
                          AIR SEA DIR/SP/G                  HT/PER
                          (F)     (DEG/KT/KT) (MB)    (MI)  (FT/S)
SOUTHERN BUOY              34 42  230/ 31/ 37  991.7R         8/ 6
WAUKEGAN HARBOR            30     250/ 19/ 32   N/A
HARRISON CRIB              32     240/ 27/ 37   N/A
BURNHAM HARBOR             31     210/ 25       N/A
CALUMET HARBOR             32     220/ 17/ 26  997.5R
MICHIGAN CITY              34     210/ 31/ 41   N/A
$$

ILZ025>027-034>036-040-047-049-050-058-095>099-242200-
WEST-CENTRAL ILLINOIS

CITY           SKY/WX    TMP DP  RH WIND       PRES   REMARKS
QUINCY         CLOUDY    33  24  69 W18G26    29.73R WCI  22
$$

ILZ028>032-037-038-041>044-048-051>054-059>061-242200-
CENTRAL ILLINOIS

CITY           SKY/WX    TMP DP  RH WIND       PRES   REMARKS
DECATUR        CLOUDY    35  27  72 W22G29    29.70R WCI  23
PEORIA         CLOUDY    32  25  75 W18G30    29.67R WCI  20
SPRINGFIELD    CLOUDY    35  27  72 W21G33    29.72R WCI  24
TAYLORVILLE    NOT AVBL
$$

ILZ033-039-045-046-055>057-062-063-242200-
EAST-CENTRAL ILLINOIS

CITY           SKY/WX    TMP DP  RH WIND       PRES   REMARKS
CHAMPAIGN      CLOUDY    34  27  75 W21G31    29.69R WCI  22
MATTOON        CLOUDY    37  27  67 W13G21    29.72R WCI  29
$$

ILZ079-100>102-242200-
SOUTHWEST ILLINOIS

CITY           SKY/WX    TMP DP  RH WIND       PRES   REMARKS
BELLEVILLE     CLOUDY    42  29  61 W16G26    29.79R
CAHOKIA*       CLOUDY    42  28  57 W15G24    29.80R
$$

ILZ064>066-069>071-074>076-080>082-084>086-088>090-092>094-242200-
SOUTH-CENTRAL ILLINOIS

CITY           SKY/WX    TMP DP  RH WIND       PRES   REMARKS
CARBONDALE     PTSUNNY   50  28  42 W14G25    29.79R
MARION         PTSUNNY   50  30  46 W15       29.80R
MT. VERNON     CLOUDY    45  30  57 W9        29.78R
$$

ILZ067-068-072-073-078-083-087-091-242200-
SOUTHEAST ILLINOIS

CITY           SKY/WX    TMP DP  RH WIND       PRES   REMARKS
LAWRENCEVILLE  CLOUDY    43  30  60 SW21      29.77R
$$

ABBREVIATIONS USED IN REMARKS
   TC - TEMPERATURE IN CELSIUS
  WCI - WIND CHILL INDEX
   HX - HEAT INDEX
  VSB - VISIBILITY
$$




USA.gov is the U.S. government's official web portal to all federal, state and local government web resources and services.